Location: Al Mulaqqa?ah
(24.1833°N, 32.8833°E)
Time: 20:46:40
(UTC+00:00)

Cosmos 2263 - Pass Details

Date: 26 September 2021
Orbit: 831 x 865 km, 70.9° (Epoch: 28 October)

Event Time Altitude Azimuth Distance (km) Brightness Sun altitude
Rises 16:15:30 0° 192° (SSW) 3,367 7.5 -8.8°
Reaches altitude 10° 16:17:56 10° 190° (S) 2,432 6.7 -9.3°
Maximum altitude 16:23:29 73° 107° (ESE) 866 4.1 -10.6°
Drops below altitude 10° 16:29:03 10° 23° (NNE) 2,436 6.4 -11.9°
Sets 16:31:29 0° 21° (NNE) 3,373 7.2 -12.4°
